Fitchburg, MA

10:01 AM EDT on July 20, 2019 (GMT -0400)
Fitchburg Municipal

Weather History for KFIT - May, 2019

Change the Weather History Date:

Tuesday, May 14, 2019

  Actual Average (WUND) Record (WUND)
Temperature  
Mean Temperature 42 °F -  
Max Temperature 46 °F - - (-1)
Min Temperature 37 °F - - (-1)
Degree Days  
Heating Degree Days 24    
Moisture  
Dew Point 38 °F    
Average Humidity 85    
Maximum Humidity 93    
Minimum Humidity 68    
Precipitation  
Precipitation 0.10 in - - ()
Sea Level Pressure  
Sea Level Pressure 29.85 in    
Wind  
Wind Speed 5 mph (NNE)    
Max Wind Speed 8 mph    
Max Gust Speed -    
Visibility 7 miles    
Events Rain    
Averages and records for this station are not official NWS values.
T = Trace of Precipitation, MM = Missing Value Source: NWS Daily Summary

Daily Weather History Graph

Daily Weather History Graph

Search for Another Location

Airport or City:

Astronomy

May. 14, 2019 Rise Set
Actual Time 5:26 AM EDT 8:01 PM EDT
Civil Twilight 4:54 AM EDT 8:33 PM EDT
Nautical Twilight 4:14 AM EDT 9:13 PM EDT
Astronomical Twilight 3:28 AM EDT 9:59 PM EDT
Moon 3:10 PM EDT (5/14) 3:26 AM EDT (5/14)
Length of Visible Light 15h 39m
Length of Day
14h 34m
Waxing Gibbous, 79% of the Moon is Illuminated
May 14
Waxing Gibbous
May 18
Full
May 26
Last Quarter
Jun 3
New
Jun 10
First Quarter

Hourly Weather History & Observations

Time (EDT) Temp. Windchill Dew Point Humidity Pressure Visibility Wind Dir Wind Speed Gust Speed Precip Events Conditions
12:08 AM 39.9 °F 34.5 °F 37.0 °F 89% 29.89 in 7.0 mi NNE 8.1 mph - 0.02 in Rain Light Rain
12:16 AM 39.9 °F 35.8 °F 37.0 °F 89% 29.89 in 8.0 mi NE 5.8 mph - 0.02 in Rain Light Rain
12:30 AM 39.9 °F 36.7 °F 37.0 °F 89% 29.88 in 8.0 mi NNE 4.6 mph - 0.03 in Rain Light Rain
12:40 AM 39.9 °F 36.7 °F 37.0 °F 89% 29.88 in 8.0 mi NE 4.6 mph - 0.04 in Rain Light Rain
12:52 AM 39.9 °F 35.8 °F 37.0 °F 89% 29.88 in 9.0 mi NNE 5.8 mph - 0.04 in Rain Light Rain
1:16 AM 39.0 °F 36.8 °F 36.0 °F 89% 29.86 in 5.0 mi NE 3.5 mph - 0.00 in Rain Light Rain
1:36 AM 39.0 °F 36.8 °F 37.0 °F 93% 29.86 in 5.0 mi NE 3.5 mph - 0.00 in Rain Light Rain
1:42 AM 39.0 °F 35.7 °F 37.0 °F 93% 29.86 in 4.0 mi North 4.6 mph - 0.00 in Rain Light Rain
1:52 AM 39.0 °F 34.8 °F 37.0 °F 93% 29.86 in 4.0 mi NNE 5.8 mph - 0.00 in Rain Light Rain
2:35 AM 39.0 °F 35.7 °F 37.0 °F 93% 29.85 in 2.5 mi NE 4.6 mph - 0.01 in Rain Light Rain
2:44 AM 39.0 °F 34.8 °F 37.0 °F 93% 29.85 in 3.0 mi NNE 5.8 mph - 0.02 in Rain Light Rain
2:52 AM 39.0 °F 34.8 °F 36.0 °F 89% 29.86 in 4.0 mi ENE 5.8 mph - 0.02 in Rain Light Rain
2:55 AM 39.0 °F 34.8 °F 36.0 °F 89% 29.85 in 4.0 mi NE 5.8 mph - 0.00 in Rain Light Rain
3:11 AM 39.0 °F 35.7 °F 37.0 °F 93% 29.85 in 3.0 mi NE 4.6 mph - 0.00 in Rain Light Rain
3:37 AM 39.0 °F 35.7 °F 36.0 °F 89% 29.85 in 4.0 mi NE 4.6 mph - 0.01 in Rain Light Rain
3:52 AM 39.0 °F - 36.0 °F 89% 29.86 in 6.0 mi Calm Calm - 0.01 in Rain Light Rain
3:59 AM 39.0 °F 34.8 °F 37.0 °F 93% 29.84 in 6.0 mi North 5.8 mph - 0.00 in Rain Light Rain
4:06 AM 39.0 °F 34.8 °F 36.0 °F 89% 29.84 in 7.0 mi NE 5.8 mph - 0.00 in Rain Light Rain
4:52 AM 37.9 °F 32.7 °F 36.0 °F 93% 29.84 in 8.0 mi North 6.9 mph - 0.01 in   Overcast
5:47 AM 39.2 °F 35.0 °F 35.6 °F 87% 29.85 in 10.0 mi NNW 5.8 mph - N/A   Overcast
5:52 AM 39.0 °F 35.7 °F 36.0 °F 89% 29.86 in 10.0 mi NW 4.6 mph - N/A   Overcast
6:10 AM 39.0 °F 34.8 °F 36.0 °F 89% 29.85 in 10.0 mi North 5.8 mph - N/A   Overcast
6:18 AM 39.0 °F 34.8 °F 36.0 °F 89% 29.85 in 10.0 mi North 5.8 mph - N/A   Overcast
6:50 AM 39.2 °F 35.0 °F 35.6 °F 87% 29.86 in 9.0 mi North 5.8 mph - N/A   Overcast
6:52 AM 39.0 °F 34.0 °F 36.0 °F 89% 29.87 in 8.0 mi North 6.9 mph - N/A   Overcast
7:10 AM 39.9 °F 35.1 °F 36.0 °F 86% 29.86 in 5.0 mi North 6.9 mph - N/A   Overcast
7:45 AM 39.9 °F 36.7 °F 37.0 °F 89% 29.86 in 6.0 mi North 4.6 mph - N/A   Overcast
7:52 AM 39.9 °F 34.5 °F 36.0 °F 86% 29.87 in 6.0 mi North 8.1 mph - N/A   Overcast
8:52 AM 41.0 °F 36.4 °F 37.0 °F 86% 29.87 in 10.0 mi North 6.9 mph - N/A   Overcast
9:33 AM 41.0 °F 37.1 °F 37.0 °F 86% 29.86 in 2.0 mi North 5.8 mph - 0.00 in Rain Light Rain
9:45 AM 41.0 °F 35.8 °F 37.0 °F 86% 29.86 in 4.0 mi North 8.1 mph - 0.00 in   Overcast
9:52 AM 42.1 °F 37.7 °F 37.9 °F 85% 29.87 in 5.0 mi North 6.9 mph - 0.00 in   Overcast
10:52 AM 42.1 °F 37.7 °F 37.0 °F 82% 29.86 in 7.0 mi NNE 6.9 mph - 0.00 in   Overcast
11:02 AM 43.0 °F 38.8 °F 37.0 °F 80% 29.85 in 10.0 mi NE 6.9 mph - N/A   Overcast
11:52 AM 44.1 °F - 37.0 °F 76% 29.86 in 9.0 mi Calm Calm - N/A   Overcast
12:52 PM 43.0 °F 38.2 °F 37.9 °F 82% 29.86 in 3.0 mi North 8.1 mph - 0.00 in   Haze
1:52 PM 45.0 °F 41.2 °F 39.0 °F 80% 29.85 in 3.0 mi NE 6.9 mph - 0.00 in Rain Light Rain
2:20 PM 46.9 °F - 37.0 °F 68% 29.83 in 10.0 mi North 8.1 mph - 0.00 in   Overcast
2:45 PM 46.0 °F 42.5 °F 37.9 °F 73% 29.83 in 10.0 mi ENE 6.9 mph - 0.00 in   Overcast
2:52 PM 46.9 °F - 39.0 °F 74% 29.84 in 10.0 mi North 6.9 mph - 0.00 in   Overcast
3:52 PM 46.9 °F - 39.0 °F 74% 29.83 in 10.0 mi East 4.6 mph - N/A   Overcast
4:52 PM 46.9 °F - 39.0 °F 74% 29.83 in 10.0 mi North 4.6 mph - N/A   Overcast
4:59 PM 46.9 °F - 39.9 °F 77% 29.81 in 9.0 mi North - - N/A   Overcast
5:29 PM 46.0 °F 44.8 °F 39.0 °F 76% 29.82 in 10.0 mi ENE 3.5 mph - 0.00 in   Overcast
5:52 PM 46.0 °F - 39.0 °F 76% 29.83 in 10.0 mi Calm Calm - 0.00 in   Overcast
6:01 PM 46.0 °F 43.9 °F 39.0 °F 76% 29.82 in 8.0 mi ENE 4.6 mph - N/A   Overcast
6:52 PM 45.0 °F - 39.9 °F 82% 29.83 in 10.0 mi Calm Calm - 0.00 in Rain Light Rain
7:52 PM 45.0 °F - 41.0 °F 86% 29.84 in 10.0 mi Calm Calm - 0.00 in Rain Light Rain
8:00 PM 45.0 °F - 39.9 °F 82% 29.83 in 10.0 mi Calm Calm - 0.00 in   Overcast
8:23 PM 45.0 °F - 41.0 °F 86% 29.83 in 10.0 mi Calm Calm - 0.00 in   Overcast
8:52 PM 45.0 °F - 41.0 °F 86% 29.85 in 10.0 mi Calm Calm - 0.01 in Rain Light Rain
9:17 PM 45.0 °F 41.8 °F 41.0 °F 86% 29.84 in 10.0 mi North 5.8 mph - 0.00 in Rain Light Rain
9:52 PM 44.1 °F 41.5 °F 41.0 °F 89% 29.85 in 3.0 mi NE 4.6 mph - 0.00 in Rain Light Rain
10:33 PM 43.0 °F 40.3 °F 39.9 °F 89% 29.84 in 7.0 mi North 4.6 mph - 0.01 in   Overcast
10:52 PM 43.0 °F - 39.9 °F 89% 29.84 in 4.0 mi Calm Calm - 0.01 in   Overcast
11:52 PM 43.0 °F 39.5 °F 39.0 °F 86% 29.84 in 10.0 mi North 5.8 mph - 0.00 in   Overcast